Home > Weather > Bamako > Past weeks

Flag for Mali Past Weather in Bamako, Mali — Yesterday and Last 2 Weeks

Now
88 °F

Clear.


Feels Like: 91 °F
Forecast: N/A
Wind: 7 mph from Southwest

Location: Bamako / Senou

Current Time: May 29, 2016 at 9:23:45 PM

Latest Report: May 29, 2016 at 9:00 PM


Visibility: 10 mi

Pressure: 29.89 "Hg

Humidity: 52%

Dew Point: 68 °F

Location of BamakoLocation

Past Weather in Bamako — Graph

°F

Bamako Temperature Yesterday

Maximum temperature yesterday: 95 °F (at 4:30 PM)
Minimum temperature yesterday: 75 °F (at 12:00 AM)
Average temperature yesterday: 85 °F

High & Low Weather Summary for the Past Weeks

 TemperatureHumidityPressure
High104 °F (May 15, 2:30 PM)100% (May 15, 6:00 PM)30.07 "Hg (May 15, 6:00 PM)
Low66 °F (May 15, 6:00 PM)12% (May 23, 2:00 PM)29.80 "Hg (May 17, 6:00 PM)
Average88 °F57%29.94 "Hg
* Reported May 14 8:00 PM — May 29 8:00 PM, Bamako, Weather by CustomWeather, © 2016

Note: Actual official high and low records may vary slightly from our data, if they occured in-between our weather recording intervals... More about our weather records

Advertising

Bamako Weather History for the Previous 24 Hours

Scroll right to see more
 ConditionsComfort  
Time TempWeatherWind HumidityBarometerVisibility
8:00 PM
Sun, May 29
90 °FClear.6 mph49%29.86 "Hg10 mi
7:30 PM91 °FClear.6 mph46%29.86 "Hg10 mi
7:00 PM91 °FClear.8 mph44%29.86 "Hg10 mi
6:30 PM93 °FSunny.7 mph41%29.86 "Hg10 mi
6:00 PM93 °FSunny.9 mph41%29.86 "Hg10 mi
5:30 PM95 °FSunny.9 mph36%29.86 "Hg10 mi
5:00 PM95 °FSunny.8 mph39%29.86 "Hg10 mi
4:30 PM95 °FPassing clouds.9 mph36%29.86 "HgN/A
4:00 PM95 °FSunny.8 mph36%29.86 "Hg10 mi
3:30 PM95 °FPassing clouds.9 mph36%29.86 "HgN/A
3:00 PM93 °FSmoke.6 mph41%29.86 "HgN/A
2:30 PM93 °FSunny.15 mph41%29.86 "Hg10 mi
2:00 PM93 °FPassing clouds.16 mph41%29.86 "HgN/A
1:30 PM93 °FPassing clouds.14 mph44%29.89 "HgN/A
1:00 PM91 °FSunny.17 mph46%29.92 "Hg10 mi
12:30 PM91 °FSunny.17 mph46%29.92 "Hg10 mi
12:00 PM90 °FSunny.18 mph52%29.92 "Hg10 mi
11:30 AM88 °FSunny.17 mph55%29.95 "Hg10 mi
11:00 AM86 °FSunny.16 mph59%29.95 "Hg10 mi
10:30 AM86 °FSunny.18 mph59%29.98 "Hg10 mi
10:00 AM84 °FSunny.14 mph62%30.01 "Hg10 mi
9:30 AM82 °FPassing clouds.14 mph66%30.01 "HgN/A
9:00 AM81 °FSunny.12 mph74%30.01 "Hg10 mi
8:30 AM81 °FSunny.14 mph74%30.01 "Hg10 mi
8:00 AM79 °FSunny.16 mph74%30.01 "Hg10 mi
7:30 AM79 °FPassing clouds.13 mph74%29.98 "HgN/A
7:00 AM77 °FSunny.6 mph83%29.95 "Hg10 mi
6:30 AM77 °FSunny.7 mph79%29.95 "Hg10 mi
6:00 AM77 °FClear.9 mph79%29.95 "Hg10 mi
5:30 AM77 °FClear.9 mph79%29.92 "Hg10 mi
5:00 AM77 °FClear.8 mph79%29.92 "Hg10 mi
4:30 AM79 °FClear.7 mph74%29.95 "Hg10 mi
4:00 AM79 °FClear.9 mph74%29.95 "Hg10 mi
3:30 AM79 °FClear.8 mph74%29.95 "Hg10 mi
3:00 AM81 °FClear.8 mph70%29.95 "Hg10 mi
2:30 AM81 °FClear.9 mph70%29.95 "Hg10 mi
2:00 AM81 °FClear.13 mph66%29.98 "Hg10 mi
1:30 AM82 °FClear.15 mph66%29.98 "Hg10 mi
1:00 AM82 °FClear.15 mph66%29.98 "Hg10 mi
12:30 AM82 °FClear.14 mph66%29.98 "Hg10 mi
12:00 AM84 °FClear.12 mph66%29.98 "Hg10 mi
11:30 PM
Sat, May 28
84 °FClear.13 mph66%29.98 "Hg10 mi
11:00 PM84 °FClear.14 mph70%30.01 "Hg10 mi
10:30 PM84 °FClear.15 mph70%30.01 "Hg10 mi
10:00 PM86 °FClear.10 mph66%29.98 "Hg10 mi
9:30 PM88 °FClear.9 mph55%29.98 "Hg10 mi
9:00 PM88 °FClear.7 mph59%29.95 "Hg10 mi
Weather by CustomWeather, © 2016

See weather overviewHow to use our weather pages